Regional Weather Roundup
Issued by NWS

Home | Current Version | Previous Version | Text Only | Print | Product List | Glossary On
Versions: 1 2 3 4 5 6 7 8 9 10 11 12 13 14 15 16 17 18 19 20 21 22 23 24 25 26 27 28 29 30 31 32 33 34 35 36 37 38 39 40 41 42 43 44 45 46 47 48 49 50
000
ASUS43 KLSX 292307
RWRMO

WEATHER SUMMARY FOR MISSOURI
NATIONAL WEATHER SERVICE SPRINGFIELD MO
600 PM CDT SUN MAR 29 2015

NOTE: "FAIR" INDICATES FEW OR NO CLOUDS BELOW 12,000 FEET WITH NO
       SIGNIFICANT WEATHER AND/OR OBSTRUCTIONS TO VISIBILITY.
       CURRENT SKY AND/OR WEATHER CONDITIONS ARE NOT AVAILABLE FOR
       CHILLICOTHE AND FARMINGTON.

MOZ001>031-035>038-043-044-053-054-300000-
...NORTHERN AND WESTERN MISSOURI...

CITY           SKY/WX    TMP DP  RH WIND       PRES   REMARKS
KANSAS CTY INT MOSUNNY   62  42  47 N14G24    30.02R
KANSAS C DTWN  LGT RAIN  65  40  39 NW16G24   30.00R
LEE`S SUMMIT   MOSUNNY   65  41  41 NW21G28   30.00R
ST JOSEPH      SUNNY     61  37  41 N23       30.04R
CHILLICOTHE      N/A     62  42  47 NW15G24   30.00R
KIRKSVILLE     MOSUNNY   60  41  49 NW20G29   29.96R

$$
MOZ066>068-077>081-088>096-101>105-300000-
...SOUTHWEST MISSOURI...

CITY           SKY/WX    TMP DP  RH WIND       PRES   REMARKS
SPRINGFIELD    PTSUNNY   59  43  55 W12       30.02R
JOPLIN         PTSUNNY   60  42  51 NW8       30.05R

$$
MOZ032>034-039>042-045>050-055>058-069>072-300000-
...CENTRAL MISSOURI...

CITY           SKY/WX    TMP DP  RH WIND       PRES   REMARKS
COLUMBIA       PTSUNNY   58  42  55 SW10      29.97F
JEFFERSON CITY PTSUNNY   60  40  47 W9        29.97F
ROLLA          PTSUNNY   56  38  50 W10       29.98R
SEDALIA        PTSUNNY   62  43  49 SW10      29.98S
WHITEMAN AFB   MOSUNNY   66  42  41 NW10      29.96S
WARRENSBURG    MOSUNNY   66  37  34 NW16G22   29.98R
OSAGE BEACH    PTSUNNY   61  37  41 W6        30.00F

$$
MOZ051-052-059>065-300000-
...EAST CENTRAL MISSOURI...

CITY           SKY/WX    TMP DP  RH WIND       PRES   REMARKS
ST LOUIS INTL  CLOUDY    57  43  59 W8        29.96R
SPIRIT OF STL  CLOUDY    57  41  55 W10       29.96R
ST CHARLES     CLOUDY    58  39  49 W10       29.94S

$$
MOZ072>076-082>087-097>100-106>115-300000-
...SOUTH CENTRAL AND SOUTHEAST MISSOURI...

CITY           SKY/WX    TMP DP  RH WIND       PRES   REMARKS
CAPE GIRARDEAU PTSUNNY   56  46  69 SW12      30.00F
FARMINGTON     CLOUDY    55  39  54 SW10      29.99S
POPLAR BLUFF   SUNNY     57  45  64 SW16      30.02R
WEST PLAINS    CLOUDY    60  42  51 W3        29.99F

$$



USA.gov is the U.S. government's official web portal to all federal, state and local government web resources and services.